Tracking 27111 objects as of 28-Mar-2023
HD Live streaming from Space Station
objects crossing your sky now

STARLINK-30051

Track STARLINK-30051 now!
10-day predictions
STARLINK-30051 is classified as:


NORAD ID: 55704
Int'l Code: 2023-026K
Perigee: 370.9 km
Apogee: 373.4 km
Inclination: 43.0 °
Period: 91.8 minutes
Semi major axis: 6743 km
RCS: Unknown
Launch date: February 27, 2023
Source: United States (US)
Launch site: AIR FORCE EASTERN TEST RANGE (AFETR)
Your satellite tracking list
Your tracking list is empty




NASA's NSSDC Master Catalog

Two Line Element Set (TLE):
1 55704U 23026K   23087.29124988  .00127772  00000-0  11128-2 0  9998
2 55704  43.0035 114.1485 0001882 266.9882  93.0769 15.67866949  5462
Source of the keplerian elements: AFSPC